Location: Oak Harbor
(48.2930°N, 122.6420°W)
Time: 23:26:51
(UTC-07:00)

Courier 1B Rocket - All Passes

Search period start: 09 June 2026 00:00
Search period end: 19 June 2026 00:00
Orbit: 920 x 1201 km, 28.2° (Epoch: 9 June)

Date Brightness Start Highest point End Pass type
(mag) Time Alt. Az. Time Alt. Az. Time Alt. Az.
9 Jun - 01:07:34 10° SW 01:11:55 16° S 01:16:12 10° SSE night (unlit)
9 Jun - 03:02:19 10° SSW 03:04:04 11° SSW 03:05:49 10° S visible
9 Jun - 22:16:38 10° S 22:18:42 11° SSE 22:20:46 10° SSE visible
10 Jun - 00:06:31 10° SSW 00:10:54 16° S 00:15:16 10° SE visible
10 Jun - 01:59:43 10° SW 02:03:08 13° SSW 02:06:30 10° SSE night (unlit)
10 Jun - 23:05:48 10° SSW 23:09:53 15° S 23:14:00 10° SE visible
11 Jun - 00:58:02 10° SW 01:02:09 15° S 01:06:15 10° SSE visible
11 Jun - 22:05:31 10° SSW 22:08:54 13° SSE 22:12:19 10° SE visible
11 Jun - 23:56:45 10° SW 00:01:08 16° S 00:05:32 10° SSE visible
12 Jun - 01:51:12 10° SW 01:53:20 11° SSW 01:55:27 10° S night (unlit)
12 Jun - 21:06:11 10° S 21:07:58 11° SSE 21:09:45 10° SSE daylight
12 Jun - 22:55:48 10° SSW 23:00:08 16° S 23:04:30 10° SE visible
13 Jun - 00:48:52 10° SW 00:52:23 14° SSW 00:55:53 10° SSE visible
13 Jun - 21:55:12 10° SSW 21:59:08 15° S 22:03:07 10° SE visible
13 Jun - 23:47:18 10° SW 23:51:23 15° S 23:55:29 10° SSE visible
14 Jun - 20:55:05 10° S 20:58:10 13° SSE 21:01:19 10° SE daylight
14 Jun - 22:46:08 10° SW 22:50:22 16° S 22:54:41 10° SSE visible
15 Jun - 00:40:27 10° SSW 00:42:35 11° SSW 00:44:43 10° S visible
15 Jun - 19:56:20 10° SSE 19:57:16 10° SSE 19:58:13 10° SSE daylight
15 Jun - 21:45:18 10° SSW 21:49:23 15° S 21:53:33 10° SE visible
15 Jun - 23:38:15 10° SW 23:41:36 13° SSW 23:45:01 10° SSE visible
16 Jun - 20:44:49 10° SSW 20:48:25 14° S 20:52:05 10° SE daylight
16 Jun - 22:36:47 10° SW 22:40:38 15° S 22:44:33 10° SSE visible
17 Jun - 19:44:54 10° S 19:47:30 12° SSE 19:50:09 10° SE daylight
17 Jun - 21:35:43 10° SW 21:39:39 15° S 21:43:40 10° SSE daylight
17 Jun - 23:30:06 10° SSW 23:31:50 11° SSW 23:33:34 10° S visible
18 Jun - 20:35:00 10° SSW 20:38:41 15° S 20:42:29 10° SE daylight
18 Jun - 22:27:53 10° SW 22:30:53 13° SSW 22:33:55 10° SSE visible
